Flag for Portugal Weather past 2 weeks in Lisbon, Portugal

Now
66 °F

Passing clouds.


Feels Like: 66 °F
Forecast: 65 / 77 °F
Wind: 12 mph from North

Location: Lisbon Portela Airport

Current Time: Jul 24, 2014 at 12:16:28 AM

Latest Report: Jul 23, 2014 at 11:30 PM


Visibility: N/A

Pressure: 29.98 "Hg

Humidity: 83%

Dew point: 61 °F

Location of LisbonLocation

Historic Weather in Lisbon — Graph

°F

Lisbon temperature yesterday

Maximum temperature yesterday: 77 °F (at 2:00 PM)
Minimum temperature yesterday: 63 °F (at 5:00 AM)
Average temperature yesterday: 69 °F

Past Weeks' High & Low Weather Summary

 TemperatureHumidityPressure
High91 °F (Jul 10, 4:30 PM)94% (Jul 13, 2:00 AM)30.18 "Hg (Jul 13, 2:00 AM)
Low59 °F (Jul 21, 4:00 AM)17% (Jul 11, 2:00 PM)29.89 "Hg (Jul 19, 5:00 AM)
Average72 °F64%30.02 "Hg
* Reported Jul 8 11:01 PM — Jul 23 11:00 PM, Lisbon, Weather by CustomWeather, © 2014

Note: Actual official high and low records may vary slightly from our data, if they occured in-between our weather recording intervals... More about our weather records

Advertising

Lisbon weather history for previous 24 hours

 ConditionsComfort  
Time TempWeatherWind HumidityBarometerVisibility
11:00 PM
Jul 23
64 °FPassing clouds.12 mph83%29.98 "HgN/A
10:30 PM64 °FPassing clouds.15 mph83%29.98 "HgN/A
10:00 PM66 °FPassing clouds.14 mph83%29.98 "HgN/A
9:30 PM66 °FScattered clouds.13 mph78%29.98 "HgN/A
9:00 PM66 °FScattered clouds.13 mph78%29.98 "HgN/A
8:30 PM68 °FPassing clouds.13 mph73%29.95 "HgN/A
8:00 PM70 °FPassing clouds.16 mph69%29.95 "HgN/A
7:30 PM70 °FPassing clouds.20 mph69%29.95 "HgN/A
7:00 PM70 °FPassing clouds.24 mph69%29.95 "HgN/A
6:30 PM72 °FPassing clouds.22 mph69%29.95 "HgN/A
6:01 PM73 °FPassing clouds.21 mph61%29.95 "HgN/A
5:30 PM73 °FPassing clouds.22 mph61%29.95 "HgN/A
5:00 PM75 °FPassing clouds.23 mph57%29.95 "HgN/A
4:30 PM75 °FPassing clouds.18 mph54%29.95 "HgN/A
4:00 PM75 °FPassing clouds.20 mph57%29.95 "HgN/A
3:30 PM75 °FPassing clouds.20 mph57%29.95 "HgN/A
3:00 PM75 °FPassing clouds.15 mph57%29.95 "HgN/A
2:30 PM75 °FPassing clouds.16 mph54%29.95 "HgN/A
2:00 PM77 °FPassing clouds.15 mph54%29.95 "HgN/A
1:30 PM73 °FPassing clouds.17 mph61%29.95 "HgN/A
1:00 PM73 °FPassing clouds.17 mph61%29.98 "HgN/A
12:30 PM72 °FPassing clouds.14 mph65%29.98 "HgN/A
12:00 PM72 °FPassing clouds.13 mph65%29.98 "HgN/A
11:30 AM72 °FPassing clouds.15 mph65%29.98 "HgN/A
11:00 AM70 °FPassing clouds.14 mph73%29.95 "HgN/A
10:30 AM68 °FPassing clouds.13 mph78%29.95 "HgN/A
10:00 AM68 °FPassing clouds.14 mph78%29.95 "HgN/A
9:30 AM68 °FPassing clouds.16 mph73%29.95 "HgN/A
9:00 AM68 °FPassing clouds.15 mph78%29.95 "HgN/A
8:30 AM66 °FScattered clouds.15 mph78%29.95 "HgN/A
6:30 AM64 °FPassing clouds.14 mph83%29.95 "HgN/A
6:00 AM64 °FPassing clouds.15 mph83%29.95 "HgN/A
5:00 AM63 °FPassing clouds.14 mph88%29.95 "HgN/A
4:00 AM64 °FPassing clouds.15 mph83%29.95 "HgN/A
3:30 AM64 °FPassing clouds.15 mph83%29.95 "HgN/A
3:00 AM64 °FPassing clouds.13 mph83%29.95 "HgN/A
2:30 AM64 °FPassing clouds.13 mph88%29.95 "HgN/A
2:00 AM64 °FPassing clouds.14 mph88%29.95 "HgN/A
1:30 AM64 °FPassing clouds.15 mph88%29.95 "HgN/A
12:30 AM64 °FPassing clouds.17 mph88%29.95 "HgN/A
12:00 AM64 °FPassing clouds.17 mph83%29.98 "HgN/A
Weather by CustomWeather, © 2014

See weather overviewHow to use our weather pages